Change the Weather History Date:

Tuesday, March 12, 2013

  Actual Average Record
Temperature  
Mean Temperature 18 °F 28 °F  
Max Temperature 25 °F 38 °F 75 °F (2007)
Min Temperature 11 °F 18 °F -25 °F (1956)
Degree Days  
Heating Degree Days 47 37  
Month to date heating degree days 497 473  
Since 1 July heating degree days 6806 6904  
Cooling Degree Days 0 0  
Month to date cooling degree days 0 0  
Year to date cooling degree days 0 0  
Moisture  
Dew Point 14 °F    
Average Humidity 72    
Maximum Humidity 84    
Minimum Humidity 59    
Precipitation  
Precipitation 0.01 in 0.03 in 0.68 in (1929)
Month to date precipitation 0.51 0.30  
Year to date precipitation 1.10 1.24  
Snow  
Snow 0.40 in 0.30 in 2.60 in (1991)
Month to date snowfall 2.2 3.8  
Since 1 July snowfall 30.8 41.3  
Snow Depth 1.00 in    
Sea Level Pressure  
Sea Level Pressure 30.23 in    
Wind  
Wind Speed 15 mph (NW)    
Max Wind Speed 30 mph    
Max Gust Speed 43 mph    
Visibility 6 miles    
Events Snow    
T = Trace of Precipitation, MM = Missing Value Source: NWS Daily Summary

Daily Weather History Graph

Daily Weather History Graph

Search for Another Location

Airport or City:

Trip Planner

Search our weather history database for the weather conditions in past years. The results will help you decide how hot, cold, wet, or windy it might be!

Date:

Astronomy

Mar. 12, 2013 Rise Set
Actual Time 8:01 AM CDT 7:44 PM CDT
Civil Twilight 7:30 AM CDT 8:15 PM CDT
Nautical Twilight 6:55 AM CDT 8:50 PM CDT
Astronomical Twilight 6:20 AM CDT 9:26 PM CDT
Moon 8:02 AM CDT (3/12) 9:09 PM CDT (3/12)
Length of Visible Light 12h 44m
Length of Day
11h 43m
New Moon, 1% of the Moon is Illuminated
Mar 12
New Moon
Mar 19
First Quarter
Mar 27
Full
Apr 2
Last Quarter
Apr 10
New

Hourly Weather History & Observations

Time (CDT) Temp. Windchill Dew Point Humidity Pressure Visibility Wind Dir Wind Speed Gust Speed Precip Events Conditions
12:05 AM 26.1 °F 10.4 °F 21.9 °F 84% 29.96 in 1.2 mi NW 26.5 mph 33.4 mph 0.00 in Snow Light Snow
12:26 AM 26.1 °F 10.7 °F 21.0 °F 81% 29.97 in 3.0 mi NW 25.3 mph 42.6 mph 0.01 in Snow Light Snow
12:52 AM 26.1 °F 11.0 °F 21.0 °F 81% 30.05 in 2.0 mi NW 24.2 mph 40.3 mph 0.01 in Snow Light Snow
12:59 AM 25.0 °F 10.2 °F 21.0 °F 85% 29.98 in 1.8 mi NW 21.9 mph 38.0 mph 0.00 in Snow Light Snow
1:05 AM 25.0 °F 8.6 °F 21.0 °F 85% 29.99 in 3.0 mi NW 27.6 mph 36.8 mph 0.00 in Snow Light Snow
1:52 AM 25.0 °F 9.9 °F 19.9 °F 81% 30.07 in 5.0 mi NW 23.0 mph 35.7 mph 0.00 in Snow Light Snow
2:52 AM 24.1 °F 8.7 °F 19.0 °F 81% 30.09 in 6.0 mi NW 23.0 mph 33.4 mph 0.01 in Snow Light Snow
3:14 AM 24.1 °F 8.0 °F 19.0 °F 81% 30.05 in 1.8 mi WNW 25.3 mph 35.7 mph 0.00 in Snow Light Snow
3:21 AM 23.0 °F 8.0 °F 18.0 °F 81% 30.05 in 2.5 mi NW 20.7 mph 38.0 mph 0.00 in Snow Light Snow
3:52 AM 23.0 °F 7.2 °F 17.6 °F 80% 30.06 in 4.0 mi NW 23.0 mph 33.4 mph N/A Snow Light Snow
4:52 AM 21.9 °F 8.2 °F 17.1 °F 82% 30.14 in 2.5 mi NW 16.1 mph 29.9 mph 0.00 in Snow Light Snow
4:59 AM 21.9 °F 5.8 °F 17.1 °F 82% 30.08 in 3.0 mi NW 23.0 mph 28.8 mph 0.00 in Snow Light Snow
5:34 AM 21.9 °F 7.8 °F 17.1 °F 82% 30.10 in 2.5 mi NW 17.3 mph - 0.00 in Snow Light Snow
5:52 AM 21.9 °F 8.2 °F 17.1 °F 82% 30.18 in 3.0 mi NW 16.1 mph 27.6 mph 0.00 in Snow Light Snow
6:52 AM 21.0 °F 6.6 °F 16.0 °F 81% 30.22 in 9.0 mi NW 17.3 mph 27.6 mph 0.00 in Snow Light Snow
7:52 AM 19.9 °F 4.8 °F 15.1 °F 81% 30.25 in 10.0 mi NW 18.4 mph 26.5 mph 0.00 in   Overcast
8:43 AM 19.9 °F 4.3 °F 15.1 °F 81% 30.19 in 2.5 mi NW 19.6 mph 25.3 mph 0.00 in Snow Light Snow
8:52 AM 19.9 °F 4.8 °F 15.1 °F 81% 30.27 in 2.0 mi NW 18.4 mph 26.5 mph 0.00 in Snow Light Snow
9:12 AM 19.0 °F 2.7 °F 14.0 °F 81% 30.20 in 2.0 mi NW 20.7 mph 29.9 mph 0.00 in Snow Light Snow
9:34 AM 19.0 °F 3.6 °F 14.0 °F 81% 30.21 in 3.0 mi NW 18.4 mph 26.5 mph 0.00 in Snow Light Snow
9:41 AM 19.0 °F 2.7 °F 14.0 °F 81% 30.22 in 2.5 mi NW 20.7 mph 26.5 mph 0.00 in Snow Light Snow
9:52 AM 19.0 °F 3.2 °F 12.9 °F 77% 30.30 in 2.5 mi NW 19.6 mph - 0.00 in Snow Light Snow
10:41 AM 19.0 °F 4.0 °F 12.9 °F 77% 30.24 in 3.0 mi NW 17.3 mph 23.0 mph 0.00 in Snow Light Snow
10:52 AM 19.9 °F 6.7 °F 12.9 °F 74% 30.33 in 6.0 mi NW 13.8 mph 27.6 mph 0.00 in Snow Light Snow
11:24 AM 19.0 °F 4.5 °F 12.0 °F 74% 30.26 in 2.5 mi NW 16.1 mph 26.5 mph 0.00 in Snow Light Snow
11:31 AM 19.0 °F 3.2 °F 12.9 °F 77% 30.26 in 2.5 mi NW 19.6 mph 25.3 mph 0.00 in Snow Light Snow
11:52 AM 19.0 °F 4.5 °F 12.0 °F 74% 30.35 in 2.5 mi NW 16.1 mph 26.5 mph 0.00 in Snow Light Snow
12:02 PM 21.0 °F 7.1 °F 12.9 °F 71% 30.27 in 3.0 mi NNW 16.1 mph - 0.00 in Snow Light Snow
12:20 PM 19.9 °F 4.3 °F 12.0 °F 71% 30.27 in 6.0 mi NW 19.6 mph - 0.00 in Snow Light Snow
12:37 PM 19.9 °F 5.2 °F 12.0 °F 71% 30.28 in 8.0 mi NW 17.3 mph 26.5 mph 0.00 in Snow Light Snow
12:52 PM 21.9 °F 8.2 °F 12.9 °F 68% 30.36 in 8.0 mi NW 16.1 mph 28.8 mph 0.00 in Snow Light Snow
1:25 PM 21.9 °F 7.8 °F 12.9 °F 68% 30.28 in 10.0 mi NNW 17.3 mph 24.2 mph 0.00 in   Mostly Cloudy
1:52 PM 21.9 °F 7.3 °F 12.9 °F 68% 30.37 in 10.0 mi NNW 18.4 mph 27.6 mph 0.00 in   Mostly Cloudy
2:05 PM 21.9 °F 6.5 °F 12.0 °F 66% 30.29 in 10.0 mi NNW 20.7 mph 28.8 mph N/A   Scattered Clouds
2:34 PM 24.1 °F 10.6 °F 12.0 °F 60% 30.29 in 10.0 mi NW 17.3 mph 28.8 mph N/A   Mostly Cloudy
2:52 PM 23.0 °F 8.0 °F 12.0 °F 63% 30.37 in 10.0 mi NNW 20.7 mph 27.6 mph N/A   Overcast
3:52 PM 23.0 °F 9.2 °F 12.0 °F 63% 30.37 in 10.0 mi NW 17.3 mph 25.3 mph N/A   Overcast
4:52 PM 24.1 °F 11.0 °F 12.0 °F 60% 30.38 in 10.0 mi NW 16.1 mph - N/A   Scattered Clouds
5:52 PM 23.0 °F 10.1 °F 10.9 °F 60% 30.38 in 10.0 mi NW 15.0 mph - N/A   Clear
6:52 PM 21.9 °F 10.4 °F 10.0 °F 60% 30.38 in 10.0 mi NNW 11.5 mph - N/A   Clear
7:52 PM 19.9 °F 10.1 °F 9.0 °F 62% 30.38 in 10.0 mi North 8.1 mph - N/A   Clear
8:52 PM 17.1 °F 8.7 °F 9.0 °F 71% 30.39 in 10.0 mi NNE 5.8 mph - N/A   Clear
9:52 PM 16.0 °F - 9.0 °F 74% 30.38 in 10.0 mi Calm Calm - N/A   Clear
10:52 PM 14.0 °F 8.2 °F 9.0 °F 80% 30.40 in 10.0 mi NE 3.5 mph - N/A   Clear
11:52 PM 10.9 °F 1.4 °F 7.0 °F 84% 30.41 in 10.0 mi ESE 5.8 mph - N/A   Clear